TimeEDT,TemperatureF,Dew PointF,Humidity,Sea Level PressureIn,VisibilityMPH,Wind Direction,Wind SpeedMPH,Gust SpeedMPH,PrecipitationIn,Events,Conditions,WindDirDegrees,DateUTC
12:51 AM,64.0,54.0,70,30.14,10.0,SSW,13.8,21.9,N/A,,Overcast,200,2012-09-26 04:51:00
1:51 AM,64.0,55.0,73,30.13,10.0,South,12.7,19.6,0.00,Rain,Light Rain,190,2012-09-26 05:51:00
2:51 AM,64.0,55.9,75,30.10,10.0,South,10.4,-,0.00,,Overcast,190,2012-09-26 06:51:00
3:51 AM,64.0,57.0,78,30.09,10.0,South,9.2,-,0.00,,Overcast,180,2012-09-26 07:51:00
4:51 AM,64.9,55.9,73,30.07,10.0,South,8.1,-,N/A,,Overcast,180,2012-09-26 08:51:00
5:51 AM,66.0,55.9,70,30.08,10.0,South,9.2,-,N/A,,Overcast,190,2012-09-26 09:51:00
6:51 AM,66.0,57.0,73,30.08,10.0,South,9.2,-,N/A,,Overcast,190,2012-09-26 10:51:00
7:51 AM,66.0,57.0,73,30.09,10.0,South,12.7,-,N/A,,Mostly Cloudy,190,2012-09-26 11:51:00
8:51 AM,66.9,57.9,73,30.09,10.0,SSW,6.9,-,N/A,,Overcast,210,2012-09-26 12:51:00
9:51 AM,68.0,57.9,70,30.10,10.0,SSW,9.2,-,N/A,,Overcast,200,2012-09-26 13:51:00
10:51 AM,70.0,59.0,68,30.09,10.0,SW,12.7,-,N/A,,Overcast,230,2012-09-26 14:51:00
11:51 AM,72.0,60.1,66,30.08,10.0,SSW,12.7,-,N/A,,Overcast,210,2012-09-26 15:51:00
12:51 PM,73.9,60.1,62,30.06,10.0,WSW,11.5,-,N/A,,Mostly Cloudy,240,2012-09-26 16:51:00
1:51 PM,77.0,60.8,57,30.04,10.0,WSW,9.2,-,N/A,,Overcast,250,2012-09-26 17:51:00
2:51 PM,73.9,63.0,68,30.02,9.0,SW,10.4,-,0.00,Rain,Light Rain,220,2012-09-26 18:51:00
3:51 PM,75.9,61.0,60,30.01,10.0,SW,10.4,19.6,0.00,,Mostly Cloudy,230,2012-09-26 19:51:00
4:51 PM,75.9,61.0,60,30.02,10.0,WSW,12.7,20.7,N/A,,Mostly Cloudy,240,2012-09-26 20:51:00
5:51 PM,75.0,61.0,62,30.03,10.0,West,8.1,-,0.00,,Mostly Cloudy,260,2012-09-26 21:51:00
6:51 PM,71.1,63.0,75,30.04,9.0,WSW,12.7,-,0.00,Rain,Light Rain,250,2012-09-26 22:51:00
7:51 PM,70.0,63.0,78,30.06,10.0,WSW,8.1,-,0.00,,Mostly Cloudy,250,2012-09-26 23:51:00
8:51 PM,71.1,62.1,73,30.06,10.0,West,5.8,-,N/A,,Mostly Cloudy,270,2012-09-27 00:51:00
9:51 PM,69.8,62.6,78,30.06,10.0,West,4.6,-,N/A,,Mostly Cloudy,260,2012-09-27 01:51:00
10:51 PM,69.1,63.0,81,30.07,10.0,SW,8.1,-,N/A,,Mostly Cloudy,230,2012-09-27 02:51:00
11:51 PM,69.1,63.0,81,30.05,10.0,West,4.6,-,N/A,,Mostly Cloudy,270,2012-09-27 03:51:00